Regional Weather Roundup
Issued by NWS

Home | Current Version | Previous Version | Graphics & Text | Print | Product List | Glossary On
Versions: 1 2 3 4 5 6 7 8 9 10 11 12 13 14 15 16 17 18 19 20 21 22 23 24 25 26 27 28 29 30 31 32 33 34 35 36 37 38 39 40 41 42 43 44 45 46 47 48 49 50
000
ASUS43 KLMK 211610
RWRKY
KENTUCKY REGIONAL WEATHER ROUNDUP
NATIONAL WEATHER SERVICE LOUISVILLE KY
1200 PM EDT THU AUG 21 2014

NOTE "FAIR" INDICATES FEW OR NO CLOUDS BELOW 12,000 FEET
WITH NO SIGNIFICANT WEATHER AND/OR OBSTRUCTIONS TO VISIBILITY.

KYZ001>023-026-027-061>063-070>075-211700-
WESTERN AND SOUTH CENTRAL KENTUCKY

CITY           SKY/WX    TMP DP  RH WIND       PRES   REMARKS
PADUCAH        SUNNY     90  73  57 W12       30.08R HX  98
HENDERSON      CLOUDY    84  73  70 SW13      30.06F HX  91
OWENSBORO      PTSUNNY   86  77  74 SW7       30.09S HX  97
HOPKINSVILLE   SUNNY     88  74  64 W12       30.12R HX  96
BOWLING GREEN  PTSUNNY   86  73  65 W12G18    30.12S HX  93
GLASGOW        SUNNY     84  73  69 SW12      30.13S HX  90
$$

KYZ024-025-028>034-038-045-046-053-211700-
NORTH CENTRAL KENTUCKY

CITY           SKY/WX    TMP DP  RH WIND       PRES   REMARKS
LOUISVILLE/SDF CLOUDY    78  73  84 SW7       30.08S
LOUISVILLE/LOU CLOUDY    81  73  76 W8        30.09R
FORT KNOX      CLOUDY    83  73  73 SW7       30.09S
$$

KYZ035>037-039>044-047>052-055>060-089>105-211700-
NORTHEAST KENTUCKY

CITY           SKY/WX    TMP DP  RH WIND       PRES   REMARKS
LEXINGTON      CLOUDY    83  73  72 SW12      30.11S
COVINGTON      CLOUDY    73  70  90 SW8       30.09S
FRANKFORT      PTSUNNY   81  73  76 SW10      30.09S
$$

KYZ054-064>069-076>088-106>120-211700-
SOUTHEAST KENTUCKY

CITY           SKY/WX    TMP DP  RH WIND       PRES   REMARKS
JACKSON        MOSUNNY   79  70  74 VRB3      30.16R
LONDON         MOSUNNY   83  71  67 SW6       30.17S
SOMERSET       CLOUDY    79  73  83 SW5       30.17S
MIDDLESBORO    MOSUNNY   78  69  74 CALM      30.20S
MONTICELLO     CLOUDY    82  74  77 W6        30.18R
$$




USA.gov is the U.S. government's official web portal to all federal, state and local government web resources and services.